Вернуться в каталог

STARLINK-34188

АктивенСвязьVLEO
NORAD 64183·PAYLOAD·🇺🇸 United States

Запущен May 28, 2025 с Cape Canaveral Space Force Station

Loading…

Ближайшие Пролёты (ближайшие 24 часа)

TLE

СвежийSource: CelesTrak SupGP

Эпоха: Sep 14, 2026, 22:29 UTC

1 64183C 25113P   26257.93729167  .00046405  00000+0  14927-2 0  2570
2 64183  53.1586 290.7126 0001198  82.4618 122.1357 15.31668882    17

Отслеживайте STARLINK-34188 в реальном времени с AllMySat

Download on the App Store